Date,TemperatureHighF,TemperatureAvgF,TemperatureLowF,DewpointHighF,DewpointAvgF,DewpointLowF,HumidityHigh,HumidityAvg,HumidityLow,PressureMaxIn,PressureMinIn,WindSpeedMaxMPH,WindSpeedAvgMPH,GustSpeedMaxMPH,PrecipitationSumIn
2013-10-1,78.7,61.0,48.0,63.2,55.0,48.0,100,83,48,29.48,29.36,8,1,8,0.00
2013-10-2,80.7,66.6,56.1,64.2,55.4,45.2,100,70,40,29.47,29.33,16,3,19,0.00
2013-10-3,76.2,62.5,51.7,55.3,48.1,42.4,86,61,36,29.61,29.47,7,2,12,0.00
2013-10-4,62.2,55.5,48.2,58.5,52.6,46.8,100,90,72,29.58,29.51,12,1,12,0.00
2013-10-5,61.8,57.0,52.8,52.1,48.5,44.1,96,74,55,29.62,29.55,13,2,13,0.00
2013-10-6,59.7,55.9,53.9,55.5,50.2,44.7,100,82,66,29.62,29.49,20,2,20,0.23
2013-10-7,74.4,62.6,55.6,67.3,57.3,45.4,100,84,63,29.49,29.07,25,6,28,0.92
2013-10-8,64.8,54.2,45.2,46.9,40.3,35.8,80,61,37,29.83,29.37,20,4,21,0.01
2013-10-9,67.7,52.4,38.9,50.6,39.8,30.5,100,67,28,29.93,29.79,16,2,17,0.00
2013-10-10,65.5,52.4,41.0,49.8,43.5,35.6,99,73,51,29.79,29.63,12,1,12,0.00
2013-10-11,50.7,49.3,48.0,49.5,48.3,46.0,100,97,91,29.64,29.61,5,0,5,0.00
2013-10-13,69.8,62.1,53.9,51.8,49.2,47.4,86,63,49,29.89,29.79,18,6,22,0.00
2013-10-14,57.8,54.5,50.9,55.0,51.4,47.7,100,90,69,29.79,29.71,23,6,23,0.04
2013-10-15,66.3,57.1,51.3,63.2,51.0,43.2,100,80,66,29.75,29.56,15,2,16,0.00
2013-10-16,65.2,60.5,57.8,57.3,52.7,48.5,96,76,62,29.57,29.29,22,6,23,0.01
2013-10-17,68.9,60.6,52.4,58.7,51.7,44.0,100,75,44,29.33,29.14,22,6,22,0.17
2013-10-18,62.7,55.3,51.1,58.5,44.9,36.2,100,69,50,29.36,29.08,16,5,23,0.71
2013-10-19,62.1,54.5,44.8,49.3,42.7,39.2,95,65,52,29.37,29.11,17,6,26,0.04
2013-10-20,58.4,51.9,47.2,49.3,39.3,32.9,91,64,39,29.44,29.09,16,7,23,0.00
2013-10-21,62.4,53.2,41.8,43.6,40.4,36.4,90,64,46,29.51,29.34,17,5,20,0.00
2013-10-22,57.0,51.4,42.7,48.2,38.8,29.1,89,63,47,29.33,29.16,20,6,20,0.01
2013-10-23,53.4,45.7,39.2,38.5,33.8,30.6,82,64,44,29.22,29.08,13,4,22,0.00
2013-10-24,46.5,40.4,32.8,37.6,33.3,27.0,90,76,60,29.32,29.12,14,4,23,0.02
2013-10-25,47.0,40.7,36.8,34.4,30.2,26.4,84,67,48,29.56,29.32,13,3,17,0.00
2013-10-26,48.0,42.1,34.4,37.9,33.4,29.0,96,72,49,29.56,29.22,20,6,22,0.00
2013-10-27,51.2,44.2,37.7,38.3,32.9,27.3,73,65,47,29.45,29.18,20,5,20,0.00
2013-10-28,48.0,40.4,30.1,43.0,31.1,21.2,90,70,46,29.81,29.43,24,6,28,0.02
2013-10-29,47.7,34.3,24.7,34.8,26.4,21.6,100,74,43,29.87,29.74,7,1,10,0.00
2013-10-30,49.3,38.3,30.2,37.2,31.6,24.7,91,77,58,29.74,29.59,15,2,16,0.00
2013-10-31,59.4,48.3,36.7,54.8,46.2,33.3,100,92,79,29.63,29.03,25,4,26,0.19